Weather History for KMLC - May, 2013

Change the Weather History Date:

Friday, May 10, 2013

  Actual Average Record
Temperature  
Mean Temperature 65 °F -  
Max Temperature 77 °F 78 °F 90 °F (1963)
Min Temperature 55 °F 57 °F 41 °F (1997)
Growing Degree Days 15 (Base 50)    
Moisture  
Dew Point 58 °F    
Average Humidity 85    
Maximum Humidity 100    
Minimum Humidity 46    
Precipitation  
Precipitation 0.15 in - - ()
Sea Level Pressure  
Sea Level Pressure 29.96 in    
Wind  
Wind Speed 2 mph (NNW)    
Max Wind Speed 13 mph    
Max Gust Speed 18 mph    
Visibility 5 miles    
Events Fog , Rain , Thunderstorm    
Averages and records for this station are not official NWS values.
T = Trace of Precipitation, MM = Missing Value Source: NWS Daily Summary

Daily Weather History Graph

Daily Weather History Graph

Search for Another Location

Airport or City:

Trip Planner

Search our weather history database for the weather conditions in past years. The results will help you decide how hot, cold, wet, or windy it might be!

Date:

Astronomy

May. 10, 2013 Rise Set
Actual Time 6:23 AM CDT 8:15 PM CDT
Civil Twilight 5:55 AM CDT 8:43 PM CDT
Nautical Twilight 5:22 AM CDT 9:17 PM CDT
Astronomical Twilight 4:46 AM CDT 9:53 PM CDT
Moon 6:48 AM CDT (5/10) 9:05 PM CDT (5/10)
Length of Visible Light 14h 47m
Length of Day
13h 52m
New Moon, 0% of the Moon is Illuminated
May 10
New Moon
May 17
First Quarter
May 24
Full
May 31
Last Quarter
Jun 8
New

Hourly Weather History & Observations

Time (CDT) Temp. Dew Point Humidity Pressure Visibility Wind Dir Wind Speed Gust Speed Precip Events Conditions
12:53 AM 63.0 °F 61.0 °F 93% 29.93 in 5.0 mi Calm Calm - N/A   Clear
1:07 AM 62.6 °F 60.8 °F 94% 29.94 in 1.8 mi Calm Calm - N/A   Clear
1:15 AM 62.6 °F 60.8 °F 94% 29.94 in 1.2 mi Calm Calm - N/A   Clear
1:18 AM 60.8 °F 59.0 °F 94% 29.94 in 2.5 mi Calm Calm - N/A   Partly Cloudy
1:26 AM 60.8 °F 59.0 °F 94% 29.94 in 3.0 mi Calm Calm - N/A   Scattered Clouds
1:38 AM 60.8 °F 57.2 °F 88% 29.93 in 2.5 mi Calm Calm - N/A   Partly Cloudy
1:53 AM 59.0 °F 57.0 °F 93% 29.91 in 3.0 mi Calm Calm - N/A   Clear
2:00 AM 59.0 °F 57.2 °F 94% 29.93 in 1.8 mi Calm Calm - N/A   Clear
2:09 AM 60.8 °F 57.2 °F 88% 29.93 in 3.0 mi Calm Calm - N/A   Clear
2:30 AM 59.0 °F 55.4 °F 88% 29.93 in 1.5 mi Calm Calm - N/A   Scattered Clouds
2:32 AM 59.0 °F 57.2 °F 94% 29.92 in 1.0 mi Calm Calm - N/A   Mist
2:41 AM 57.2 °F 55.4 °F 94% 29.92 in 2.0 mi Calm Calm - N/A   Scattered Clouds
2:53 AM 57.2 °F 55.4 °F 94% 29.92 in 1.5 mi Calm Calm - N/A   Mostly Cloudy
3:00 AM 55.4 °F 53.6 °F 94% 29.93 in 3.0 mi Calm Calm - N/A   Scattered Clouds
3:08 AM 57.2 °F 53.6 °F 88% 29.93 in 1.8 mi SSE 4.6 mph - N/A   Scattered Clouds
3:11 AM 57.2 °F 55.4 °F 94% 29.93 in 0.8 mi South 3.5 mph - N/A   Scattered Clouds
3:18 AM 59.0 °F 57.2 °F 94% 29.93 in 0.5 mi SSE 3.5 mph - N/A Fog Fog
3:24 AM 57.2 °F 55.4 °F 94% 29.93 in 1.0 mi Calm Calm - N/A   Mostly Cloudy
3:35 AM 57.2 °F 55.4 °F 94% 29.94 in 4.0 mi Calm Calm - N/A   Overcast
3:48 AM 60.8 °F 59.0 °F 94% 29.95 in 2.5 mi NW 3.5 mph - N/A   Overcast
3:51 AM 60.8 °F 60.8 °F 100% 29.94 in 3.0 mi Calm Calm - N/A   Overcast
3:53 AM 61.0 °F 60.1 °F 97% 29.93 in 4.0 mi North 3.5 mph - N/A   Overcast
4:53 AM 60.1 °F 57.9 °F 93% 29.92 in 3.0 mi Calm Calm - N/A   Overcast
5:00 AM 60.8 °F 57.2 °F 88% 29.94 in 2.5 mi Calm Calm - N/A   Overcast
5:10 AM 60.8 °F 57.2 °F 88% 29.93 in 1.8 mi Calm Calm - N/A   Overcast
5:23 AM 60.8 °F 57.2 °F 88% 29.93 in 3.0 mi Calm Calm - N/A   Overcast
5:31 AM 60.8 °F 59.0 °F 94% 29.93 in 2.0 mi Calm Calm - N/A   Overcast
5:53 AM 61.0 °F 59.0 °F 93% 29.91 in 2.5 mi Calm Calm - N/A   Overcast
6:04 AM 60.8 °F 59.0 °F 94% 29.94 in 1.2 mi Calm Calm - 0.10 in Rain Heavy Rain
6:16 AM 60.8 °F 59.0 °F 94% 29.95 in 2.0 mi Calm Calm - 0.14 in Rain Light Rain
6:18 AM 60.8 °F 59.0 °F 94% 29.95 in 2.5 mi SW 3.5 mph - 0.15 in Rain Light Rain
6:36 AM 60.8 °F 59.0 °F 94% 29.96 in 2.5 mi Calm Calm - 0.15 in Thunderstorm Overcast
6:47 AM 60.8 °F 59.0 °F 94% 29.95 in 1.8 mi Calm Calm - 0.15 in   Overcast
6:53 AM 61.0 °F 59.0 °F 93% 29.95 in 1.8 mi Calm Calm - 0.15 in   Overcast
7:03 AM 60.8 °F 59.0 °F 94% 29.97 in 2.0 mi WSW 3.5 mph - N/A   Overcast
7:22 AM 62.6 °F 60.8 °F 94% 29.99 in 2.5 mi SW 4.6 mph - N/A   Overcast
7:49 AM 62.6 °F 60.8 °F 94% 29.98 in 2.0 mi Calm Calm - N/A   Overcast
7:53 AM 62.6 °F 60.8 °F 94% 29.99 in 2.0 mi SSW 3.5 mph - N/A   Overcast
8:11 AM 62.6 °F 60.8 °F 94% 29.98 in 3.0 mi Calm Calm - N/A   Overcast
8:24 AM 64.4 °F 62.6 °F 94% 29.98 in 4.0 mi Calm Calm - N/A   Mostly Cloudy
8:33 AM 64.4 °F 62.6 °F 94% 29.99 in 4.0 mi WNW 3.5 mph - N/A   Mostly Cloudy
8:53 AM 64.9 °F 62.1 °F 90% 29.99 in 6.0 mi West 3.5 mph - N/A   Mostly Cloudy
9:02 AM 66.2 °F 62.6 °F 88% 30.00 in 6.0 mi NW 5.8 mph - N/A   Mostly Cloudy
9:53 AM 68.0 °F 62.1 °F 81% 29.99 in 8.0 mi North 4.6 mph - N/A   Overcast
10:53 AM 69.1 °F 62.1 °F 78% 29.98 in 9.0 mi North 6.9 mph - N/A   Mostly Cloudy
11:11 AM 71.6 °F 62.6 °F 73% 29.99 in 10.0 mi North 10.4 mph - N/A   Scattered Clouds
11:48 AM 73.4 °F 60.8 °F 65% 29.99 in 10.0 mi North 10.4 mph 16.1 mph N/A   Mostly Cloudy
11:53 AM 73.4 °F 60.8 °F 65% 29.99 in 10.0 mi North 10.4 mph 16.1 mph N/A   Scattered Clouds
12:53 PM 75.0 °F 59.0 °F 57% 29.98 in 10.0 mi NNW 12.7 mph 18.4 mph N/A   Clear
1:53 PM 75.0 °F 57.9 °F 55% 29.98 in 10.0 mi North 12.7 mph - N/A   Partly Cloudy
2:53 PM 73.9 °F 57.0 °F 55% 29.98 in 10.0 mi North 12.7 mph - N/A   Mostly Cloudy
3:53 PM 75.0 °F 55.9 °F 51% 29.96 in 10.0 mi NW 9.2 mph 17.3 mph N/A   Mostly Cloudy
4:53 PM 75.9 °F 54.0 °F 46% 29.95 in 10.0 mi North 10.4 mph - N/A   Partly Cloudy
5:53 PM 75.0 °F 55.9 °F 51% 29.96 in 10.0 mi NNW 9.2 mph - N/A   Mostly Cloudy
6:53 PM 73.9 °F 55.9 °F 53% 29.96 in 10.0 mi NNW 10.4 mph - N/A   Partly Cloudy
7:53 PM 70.0 °F 55.9 °F 61% 29.98 in 10.0 mi North 8.1 mph - N/A   Partly Cloudy
8:53 PM 66.0 °F 55.9 °F 70% 30.01 in 10.0 mi Calm Calm - N/A   Partly Cloudy
9:53 PM 64.9 °F 55.9 °F 73% 30.02 in 10.0 mi North 9.2 mph - N/A   Mostly Cloudy
10:53 PM 64.0 °F 55.9 °F 75% 30.05 in 10.0 mi NNE 6.9 mph - N/A   Partly Cloudy
11:53 PM 63.0 °F 53.1 °F 70% 30.06 in 10.0 mi NNE 8.1 mph - N/A   Partly Cloudy